Location: *
(60.1759°S, 155.0663°W)
Time: 04:08:46
(UTC+00:00)

ADEOS II - Pass Details

Date: 17 September 2019
Orbit: 799 x 801 km, 98.5° (Epoch: 20 October)

Event Time Altitude Azimuth Distance (km) Brightness Sun altitude
Exits shadow 12:13:19 45° 233° (SW) 1,104 2.7 -27.8°
Drops below altitude 10° 12:17:19 10° 202° (SSW) 2,423 4.9 -27.5°
Sets 12:19:44 0° 198° (SSW) 3,360 5.8 -27.3°
